This demonstration page uses our WeatherBlox Daily Observations layout. Learn more.

Left ArrowRight Arrow

38.89511, -77.03637

Hourly Observations for December 4, 2020

Temp ( °F °C ) Dew Point ( °F °C ) Humidity (%) Winds ( mph kmh ) Pressure ( in mb ) Visibility ( mi km ) Precip ( " mm )
12:52 am 00:52 Cloudy 48 8.9 30 -1.1 50 50 S 5 7 30.16 1021 10 16 0.00 0.00
1:52 am 01:52 Cloudy 49 9.4 30 -1.1 48 48 S 9 15 30.16 1021 10 16 0.00 0.00
2:52 am 02:52 Cloudy 48 8.9 34 1.1 58 58 S 10 17 30.13 1020 10 16 0.00 0.00
3:52 am 03:52 Cloudy 49 9.4 32 0 52 52 S 9 15 30.10 1019 10 16 0.00 0.00
4:52 am 04:52 Cloudy 49 9.4 29 -1.7 46 46 SSW 9 15 30.09 1019 10 16 0.00 0.00
5:52 am 05:52 Cloudy 49 9.4 30 -1.1 48 48 S 7 11 30.10 1019 10 16 0.00 0.00
6:52 am 06:52 Cloudy 48 8.9 31 -0.6 52 52 S 6 9 30.09 1019 10 16 0.00 0.00
7:52 am 07:52 Cloudy with Light Rain 48 8.9 33 0.6 56 56 S 7 11 30.10 1019 10 16 0.00 0.00
8:52 am 08:52 Cloudy with Light Rain 48 8.9 34 1.1 58 58 S 9 15 30.10 1019 10 16 0.00 0.00
9:52 am 09:52 Cloudy 50 10 36 2.2 59 59 SSW 7 11 30.10 1019 10 16 0.00 0.00
10:52 am 10:52 Cloudy 51 10.6 33 0.6 50 50 SW 3 6 30.08 1019 10 16 0.00 0.00
11:52 am 11:52 Cloudy 52 11.1 33 0.6 49 49 SSW 5 7 30.06 1018 10 16 0.00 0.00
12:52 pm 12:52 Cloudy 53 11.7 34 1.1 48 48 VRB 5 7 30.05 1018 10 16 0.00 0.00
1:52 pm 13:52 Cloudy 52 11.1 36 2.2 55 55 ENE 5 7 30.01 1016 10 16 0.00 0.00
2:52 pm 14:52 Cloudy 51 10.6 37 2.8 59 59 NE 5 7 29.98 1015 10 16 0.00 0.00
3:52 pm 15:52 Cloudy 53 11.7 34 1.1 48 48 VRB 3 6 30.00 1016 10 16 0.00 0.00
4:52 pm 16:52 Cloudy 50 10 37 2.8 61 61 NNE 7 11 29.96 1015 10 16 0.00 0.00
5:52 pm 17:52 Cloudy 49 9.4 40 4.4 71 71 SE 5 7 29.98 1015 10 16 0.00 0.00
6:52 pm 18:52 Cloudy 50 10 40 4.4 68 68 NNE 3 6 29.97 1015 10 16 0.00 0.00
7:52 pm 19:52 Cloudy with Light Rain 48 8.9 43 6.1 83 83 NE 7 11 29.94 1014 7 11 0.04 1.02
8:52 pm 20:52 Cloudy with Light Rain 48 8.9 44 6.7 86 86 N 5 7 29.93 1013 9 14 0.03 0.76
9:52 pm 21:52 Cloudy with Rain 47 8.3 45 7.2 93 93 NNW 7 11 29.92 1013 5 8 0.06 1.52
10:52 pm 22:52 Cloudy with Rain 47 8.3 45 7.2 93 93 NE 9 15 29.86 1011 5 8 0.14 3.56
11:52 pm 23:52 Cloudy with Light Rain 47 8.3 46 7.8 97 97 NNE 7 11 29.82 1010 4 6 0.14 3.56

Powered by AerisWeather